Theta_e
363 358 357 357 353 354 353 357 364 365 364 364 361 361 365 360 358 358 356 357 360 355
363 362 358 360 360 355 360 358 364 363 364 363 362 362 363 357 360 361 359 359 360 357
361 362 362 360 360 359 358 361 362 364 363 362 364 363 365 360 361 362 358 356 361 366
358 360 361 359 358 360 361 362 363 365 365 363 362 365 366 364 361 360 359 360 361 362
360 360 358 359 357 359 359 362 364 364 364 364 364 366 366 362 358 360 359 358 361 360
358 358 358 358 359 359 359 360 360 362 362 362 364 365 365 365 362 361 361 361 361 359
357 359 358 359 360 359 360 359 359 360 362 363 363 363 363 363 364 364 363 363 363 362
358 359 359 360 359 359 360 359 360 359 359 361 361 359 362 364 363 364 363 364 364 363
357 358 359 360 359 359 359 359 360 358 356 356 354 340 339 355 362 363 363 363 364 365
355 355 357 358 359 358 359 359 359 358 358 358 358 334 333 341 360 361 364 364 363 361
352 353 356 355 356 357 357 358 358 358 359 359 359 331 329 335 358 360 364 364 364 364
350 352 354 352 354 356 356 355 356 357 359 361 361 328 327 335 351 351 362 363 366 365
335 340 348 353 357 357 357 355 353 355 357 348 360 334 323 333 351 351 345 358 367 339
335 336 342 346 345 351 358 360 357 355 355 358 355 357 323 320 354 350 349 343 343 350
Wind_Speed
14 9 9 9 8 8 9 7 7 8 7 6 7 6 6 6 7 5 4 5 5 2
13 14 10 10 9 8 6 4 8 9 9 8 7 6 6 6 7 5 6 6 5 7
15 14 13 10 11 10 9 8 7 9 9 8 9 8 8 7 7 7 6 7 5 6
15 15 13 13 13 12 11 10 10 10 10 10 9 9 9 6 5 9 8 7 7 8
15 14 15 14 14 12 13 12 11 10 10 10 10 10 10 10 8 9 9 9 8 9
15 15 16 15 14 14 13 13 13 12 12 12 12 11 11 11 11 10 10 9 9 9
15 15 15 15 14 15 14 14 14 14 13 13 12 12 12 12 12 12 11 11 11 10
13 14 14 14 14 15 15 14 14 14 14 14 13 11 13 13 13 13 12 12 11 12
11 12 13 13 14 15 15 15 14 15 16 16 13 13 11 13 13 14 13 12 12 13
10 11 12 13 13 14 15 15 15 16 16 16 16 11 13 16 15 14 13 14 12 12
7 7 9 11 13 13 13 14 14 15 16 16 15 14 16 16 17 15 15 15 15 15
12 9 10 9 11 10 11 13 14 15 16 16 16 14 17 16 18 18 17 16 16 16
11 12 12 11 10 11 12 12 11 15 16 17 17 13 16 17 14 16 16 16 17 16
9 9 12 8 7 11 11 11 11 14 14 16 16 17 16 19 16 15 14 16 15 16
Wind_Direction
216 216 227 216 258 190 216 188 156 197 188 194 190 189 182 196 213 197 212 215 295 268
213 224 222 242 206 233 250 209 180 198 195 184 184 199 193 224 202 183 204 223 230 267
213 215 219 224 232 233 240 237 189 206 202 197 190 192 204 188 208 206 220 232 185 252
213 213 213 215 222 230 225 226 230 215 211 212 208 199 196 233 209 211 224 245 238 235
217 212 210 215 216 220 226 219 219 220 223 228 229 210 210 213 210 215 221 226 232 236
216 215 218 214 214 213 218 223 224 221 222 224 223 225 216 220 221 221 222 224 228 237
221 221 221 224 219 213 209 218 219 222 225 226 228 221 228 221 226 230 230 230 233 234
218 225 227 226 224 222 216 214 220 217 220 227 229 224 219 229 226 228 234 241 235 231
238 228 226 224 224 225 221 221 218 221 221 222 230 220 196 223 229 229 234 237 236 241
243 241 235 233 228 226 226 225 223 225 224 225 224 214 196 198 233 238 232 237 241 237
277 256 255 245 240 234 236 230 228 229 230 231 228 207 195 198 223 235 242 241 237 241
320 290 253 248 250 252 240 240 236 234 233 231 236 203 201 196 226 234 237 240 239 238
333 324 300 291 258 242 240 240 248 244 236 236 240 213 201 202 230 235 236 230 231 223
323 323 305 287 274 283 261 249 242 244 255 252 238 237 203 198 226 234 234 238 238 232